KQ4KX Weather Reports


time (UTC)temp
C
wind
direction
speed
KPH
gust
KPH
rain 1hr
cm
rain 24hr
cm
rain mn
cm
humidity
%
barometer
mb
20260506114534 21 115 1.6 9.7 0.00 0.00 0.00 94 1016.6
20260506111933 21 153 1.6 4.8 0.00 0.00 0.00 95 1016.5
20260506110834 21 132 1.6 9.7 0.00 0.00 0.00 95 1016.4
20260506105733 20 148 1.6 6.4 0.00 0.00 0.00 95 1016.2
20260506105203 20 132 1.6 6.4 0.00 0.00 0.00 95 1016.1
20260506104703 20 111 1.6 6.4 0.00 0.00 0.00 95 1016.0
20260506104133 20 107 3.2 6.4 0.00 0.00 0.00 95 1016.1
20260506103633 20 105 3.2 6.4 0.00 0.00 0.00 94 1016.0
20260506103133 20 102 3.2 6.4 0.00 0.00 0.00 94 1016.0
20260506102133 20 106 4.8 6.4 0.00 0.00 0.00 94 1016.0
20260506101603 21 104 3.2 9.7 0.00 0.00 0.00 94 1016.1
20260506101103 21 104 1.6 9.7 0.00 0.00 0.00 94 1016.0
20260506100534 21 135 0.0 6.4 0.00 0.00 0.00 94 1016.0
20260506095503 21 144 0.0 1.6 0.00 0.00 0.00 93 1016.1
20260506094434 21 111 1.6 4.8 0.00 0.00 0.00 93 1016.0
20260506093934 21 113 1.6 4.8 0.00 0.00 0.00 92 1015.9
20260506093433 21 118 0.0 4.8 0.00 0.00 0.00 92 1015.9
20260506092903 21 152 1.6 3.2 0.00 0.00 0.00 92 1016.0
20260506092403 21 154 1.6 8.0 0.00 0.00 0.00 92 1015.9
20260506091903 21 147 0.0 8.0 0.00 0.00 0.00 92 1015.7
20260506091334 21 148 0.0 4.8 0.00 0.00 0.00 92 1015.7
20260506090333 20 168 1.6 6.4 0.00 0.00 0.00 91 1015.7
20260506084803 20 105 1.6 3.2 0.00 0.00 0.00 90 1015.7
20260506084303 21 109 1.6 6.4 0.00 0.00 0.00 90 1015.8
20260506083803 21 109 3.2 6.4 0.00 0.00 0.00 90 1015.7
20260506083304 20 121 3.2 6.4 0.00 0.00 0.00 90 1015.7
20260506082803 20 139 1.6 6.4 0.00 0.00 0.00 90 1015.6
20260506082234 20 145 0.0 4.8 0.00 0.00 0.00 89 1015.9
20260506081233 20 136 1.6 3.2 0.00 0.00 0.00 89 1016.0
20260506080133 20 152 1.6 4.8 0.00 0.00 0.00 88 1015.9
20260506073103 20 151 1.6 4.8 0.00 0.00 0.00 88 1016.0
20260506072533 20 138 1.6 6.4 0.00 0.00 0.00 88 1015.9
20260506072003 20 144 1.6 6.4 0.00 0.00 0.00 88 1016.1
20260506071503 20 155 1.6 4.8 0.00 0.00 0.00 88 1016.1
20260506071003 20 118 0.0 4.8 0.00 0.00 0.00 88 1016.1
20260506062233 20 105 3.2 8.0 0.00 0.00 0.00 87 1016.3
20260506061733 20 102 3.2 9.7 0.00 0.00 0.00 87 1016.3
20260506061207 20 101 3.2 9.7 0.00 0.00 0.00 87 1016.4
20260506060633 20 111 1.6 6.4 0.00 0.00 0.00 87 1016.4
20260506060134 20 123 0.0 6.4 0.00 0.00 0.00 87 1016.5
20260506050933 20 101 4.8 9.7 0.00 0.00 0.00 85 1016.9
20260506050433 20 102 4.8 6.4 0.00 0.00 0.00 84 1017.0
20260506042733 21 105 3.2 9.7 0.00 0.00 0.00 82 1017.0
20260506042233 21 110 3.2 6.4 0.00 0.00 0.00 81 1016.9
20260506041703 21 105 3.2 9.7 0.00 0.00 0.00 81 1016.9
20260506041204 21 109 3.2 9.7 0.00 0.00 0.00 80 1016.9
20260506040703 21 111 3.2 9.7 0.00 0.00 0.00 80 1016.9
20260506040203 21 105 3.2 9.7 0.00 0.00 0.00 80 1016.9
20260506035104 21 123 1.6 11.3 0.00 0.00 0.00 80 1016.9
20260506034534 21 105 4.8 11.3 0.00 0.00 0.00 79 1016.9
20260506033503 22 108 6.4 11.3 0.00 0.00 0.00 79 1017.0
20260506032933 22 108 6.4 12.9 0.00 0.00 0.00 79 1017.0
20260506032433 22 107 6.4 11.3 0.00 0.00 0.00 78 1017.0
20260506031934 22 105 6.4 11.3 0.00 0.00 0.00 78 1017.0
20260506031403 22 106 6.4 12.9 0.00 0.00 0.00 78 1017.0
20260506030833 22 105 6.4 14.5 0.00 0.00 0.00 77 1016.9
20260506025803 22 107 8.0 11.3 0.00 0.00 0.00 77 1016.9
20260506025305 22 104 8.0 12.9 0.00 0.00 0.00 77 1016.9
20260506024733 22 105 6.4 12.9 0.00 0.00 0.00 76 1016.8
20260506024233 22 107 4.8 12.9 0.00 0.00 0.00 75 1016.7
20260506023235 22 105 6.4 14.5 0.00 0.00 0.00 75 1016.7
20260506022704 22 106 8.0 14.5 0.00 0.00 0.00 75 1016.6
20260506022203 23 104 9.7 14.5 0.00 0.00 0.00 75 1016.6
20260506021133 23 103 9.7 16.1 0.00 0.00 0.00 74 1016.5
20260506020603 23 103 11.3 16.1 0.00 0.00 0.00 74 1016.4
20260506020033 23 101 12.9 22.5 0.00 0.00 0.00 73 1016.3
20260506015503 23 102 14.5 22.5 0.00 0.00 0.00 73 1016.3
20260506014934 23 101 14.5 22.5 0.00 0.00 0.00 74 1016.1
20260506014433 23 99 14.5 22.5 0.00 0.00 0.00 74 1016.0
20260506013404 23 102 14.5 22.5 0.00 0.00 0.00 73 1016.0
20260506012834 23 103 14.5 24.1 0.00 0.00 0.00 72 1015.8
20260506012307 24 101 16.1 24.1 0.00 0.00 0.00 71 1015.7
20260506011733 24 101 16.1 25.7 0.00 0.00 0.00 72 1015.7
20260506011233 24 103 16.1 25.7 0.00 0.00 0.00 71 1015.6
20260506010203 24 99 16.1 22.5 0.00 0.00 0.00 70 1015.5
20260506005133 24 103 16.1 24.1 0.00 0.00 0.00 70 1015.4
20260506004133 25 99 17.7 27.4 0.00 0.00 0.00 70 1015.1
20260506003633 25 101 16.1 27.4 0.00 0.00 0.00 70 1015.1
20260506003133 25 102 14.5 24.1 0.00 0.00 0.00 70 1015.1
20260506002103 25 104 14.5 25.7 0.00 0.00 0.00 69 1014.9
20260506001604 25 104 14.5 25.7 0.00 0.00 0.00 69 1014.9
20260506001033 25 102 17.7 25.7 0.00 0.00 0.00 68 1015.0
20260506000533 25 101 17.7 29.0 0.00 0.00 0.00 66 1014.9
20260506000005 25 102 19.3 30.6 0.00 0.00 0.00 68 1014.9
20260505235503 26 104 19.3 30.6 0.00 0.00 0.00 67 1014.7
20260505235004 26 102 22.5 32.2 0.00 0.00 0.00 68 1014.6
20260505234503 26 100 24.1 33.8 0.00 0.00 0.00 67 1014.6
20260505234004 26 101 20.9 33.8 0.00 0.00 0.00 67 1014.5
20260505233503 26 102 19.3 27.4 0.00 0.00 0.00 66 1014.5
20260505233005 26 100 20.9 30.6 0.00 0.00 0.00 66 1014.4
20260505232503 27 100 22.5 30.6 0.00 0.00 0.00 65 1014.5
20260505231503 27 100 17.7 29.0 0.00 0.00 0.00 65 1014.6
20260505231005 27 97 16.1 25.7 0.00 0.00 0.00 64 1014.5
20260505230433 27 99 16.1 24.1 0.00 0.00 0.00 63 1014.5
20260505225905 27 100 17.7 24.1 0.00 0.00 0.00 62 1014.5
20260505224303 28 101 14.5 20.9 0.00 0.00 0.00 60 1014.5
20260505223803 28 101 11.3 17.7 0.00 0.00 0.00 60 1014.5
20260505223303 28 106 9.7 17.7 0.00 0.00 0.00 57 1014.6
20260505222733 28 105 9.7 16.1 0.00 0.00 0.00 59 1014.4
20260505222233 28 100 9.7 16.1 0.00 0.00 0.00 58 1014.3
20260505221703 28 100 12.9 17.7 0.00 0.00 0.00 59 1014.3
20260505221203 28 98 11.3 17.7 0.00 0.00 0.00 56 1014.4
20260505220633 28 96 11.3 19.3 0.00 0.00 0.00 58 1014.3
20260505215633 28 100 14.5 20.9 0.00 0.00 0.00 58 1014.5
20260505215133 29 99 16.1 22.5 0.00 0.00 0.00 59 1014.4
20260505214604 29 98 14.5 22.5 0.00 0.00 0.00 56 1014.4
20260505213504 30 108 4.8 9.7 0.00 0.00 0.00 53 1014.4
20260505212933 30 113 4.8 12.9 0.00 0.00 0.00 53 1014.3
20260505212403 30 106 4.8 12.9 0.00 0.00 0.00 53 1014.4
20260505211903 30 100 6.4 17.7 0.00 0.00 0.00 56 1014.4
20260505211335 30 97 9.7 17.7 0.00 0.00 0.00 53 1014.3
20260505210833 30 96 9.7 17.7 0.00 0.00 0.00 54 1014.3
20260505205833 30 100 9.7 17.7 0.00 0.00 0.00 52 1014.4
20260505205305 31 104 6.4 17.7 0.00 0.00 0.00 51 1014.3
20260505204803 31 112 3.2 11.3 0.00 0.00 0.00 52 1014.3
20260505204233 31 107 4.8 11.3 0.00 0.00 0.00 49 1014.4
20260505203733 31 102 6.4 11.3 0.00 0.00 0.00 50 1014.4
20260505203233 31 93 3.2 11.3 0.00 0.00 0.00 52 1014.4
20260505202703 31 66 3.2 6.4 0.00 0.00 0.00 49 1014.5
20260505202203 31 79 3.2 6.4 0.00 0.00 0.00 49 1014.5
20260505201633 31 96 4.8 14.5 0.00 0.00 0.00 49 1014.6
20260505201103 30 94 4.8 14.5 0.00 0.00 0.00 53 1014.7
20260505200033 30 90 6.4 12.9 0.00 0.00 0.00 51 1014.7
20260505194433 31 94 6.4 19.3 0.00 0.00 0.00 51 1014.8
20260505193433 31 101 8.0 16.1 0.00 0.00 0.00 48 1015.0
20260505192903 31 97 6.4 16.1 0.00 0.00 0.00 51 1015.0
20260505191833 31 100 4.8 12.9 0.00 0.00 0.00 52 1015.1
20260505191303 31 103 8.0 16.1 0.00 0.00 0.00 51 1015.2
20260505190803 31 95 8.0 16.1 0.00 0.00 0.00 52 1015.2
20260505190233 31 92 8.0 20.9 0.00 0.00 0.00 51 1015.3
20260505185733 31 94 6.4 20.9 0.00 0.00 0.00 53 1015.3
20260505185203 31 100 6.4 19.3 0.00 0.00 0.00 49 1015.4
20260505184703 31 102 8.0 20.9 0.00 0.00 0.00 53 1015.4
20260505184203 31 91 6.4 20.9 0.00 0.00 0.00 53 1015.5
20260505183703 30 88 4.8 11.3 0.00 0.00 0.00 53 1015.5
20260505183203 30 101 6.4 17.7 0.00 0.00 0.00 54 1015.6
20260505182703 30 96 6.4 17.7 0.00 0.00 0.00 52 1015.7
20260505181603 30 96 6.4 14.5 0.00 0.00 0.00 50 1016.0
20260505181103 30 99 8.0 16.1 0.00 0.00 0.00 51 1016.1
20260505180533 31 104 8.0 16.1 0.00 0.00 0.00 53 1016.0
20260505180033 31 105 8.0 16.1 0.00 0.00 0.00 53 1016.1
20260505174403 30 95 8.0 19.3 0.00 0.00 0.00 55 1016.3
20260505173333 30 118 4.8 12.9 0.00 0.00 0.00 55 1016.4
20260505172803 30 110 4.8 12.9 0.00 0.00 0.00 53 1016.4
20260505172233 30 94 3.2 12.9 0.00 0.00 0.00 55 1016.4
20260505171733 30 99 8.0 17.7 0.00 0.00 0.00 54 1016.5
20260505171233 30 101 11.3 19.3 0.00 0.00 0.00 53 1016.5
20260505170733 30 97 11.3 19.3 0.00 0.00 0.00 54 1016.5
20260505170203 30 93 8.0 16.1 0.00 0.00 0.00 54 1016.5
20260505165703 30 93 6.4 14.5 0.00 0.00 0.00 56 1016.5
20260505165203 30 97 9.7 17.7 0.00 0.00 0.00 53 1016.7
20260505164633 30 100 8.0 19.3 0.00 0.00 0.00 58 1016.7
20260505164135 30 89 6.4 16.1 0.00 0.00 0.00 57 1016.6
20260505163634 29 92 9.7 19.3 0.00 0.00 0.00 57 1016.5
20260505163103 30 100 9.7 19.3 0.00 0.00 0.00 56 1016.5
20260505162603 30 100 8.0 19.3 0.00 0.00 0.00 59 1016.7
20260505162033 28 95 9.7 20.9 0.00 0.00 0.00 59 1016.6
20260505151802 28 103 14.5 22.5 0.00 0.00 0.00 61 1016.6
20260505151303 27 100 14.5 22.5 0.00 0.00 0.00 64 1016.7
20260505150803 27 96 14.5 22.5 0.00 0.00 0.00 67 1016.7
20260505150233 27 95 14.5 24.1 0.00 0.00 0.00 65 1016.6
20260505140402 25 98 16.1 24.1 0.00 0.00 0.00 75 1016.1
20260505130203 23 98 14.5 22.5 0.00 0.00 0.00 81 1016.2
20260505124103 22 96 11.3 17.7 0.00 0.00 0.00 85 1016.3
20260505123533 22 102 11.3 17.7 0.00 0.00 0.00 86 1016.3
20260505123033 22 99 9.7 17.7 0.00 0.00 0.00 86 1016.3
20260505121432 21 99 9.7 14.5 0.00 0.00 0.00 88 1016.3
20260505120933 21 96 9.7 14.5 0.00 0.00 0.00 89 1016.3
20260505120433 21 94 8.0 14.5 0.00 0.00 0.00 89 1016.2
20260505114903 20 87 4.8 11.3 0.00 0.00 0.00 91 1016.0